| time (UTC) | temp F | wind direction | speed MPH | gust MPH | rain 1hr in | rain 24hr in | rain mn in | humidity % | barometer mb |
| 20260504185443 | 79 | 228 | 3.0 | 1.0 | 0.00 | 0.55 | 0.03 | 44 | 1010.9 |
| 20260504185411 | 79 | 228 | 3.0 | 1.0 | 0.00 | 0.55 | 0.03 | 44 | 1010.9 |
| 20260504184946 | 80 | 218 | 2.0 | 3.0 | 0.00 | 0.55 | 0.03 | 40 | 1011.0 |
| 20260504184911 | 80 | 218 | 2.0 | 3.0 | 0.00 | 0.55 | 0.03 | 40 | 1011.0 |
| 20260504184444 | 80 | 235 | 0.0 | 7.0 | 0.00 | 0.55 | 0.03 | 33 | 1011.1 |
| 20260504184411 | 80 | 235 | 0.0 | 7.0 | 0.00 | 0.55 | 0.03 | 33 | 1011.1 |
| 20260504183908 | 80 | 266 | 0.0 | 0.0 | 0.00 | 0.55 | 0.03 | 33 | 1011.1 |
| 20260504183409 | 80 | 176 | 2.0 | 0.0 | 0.00 | 0.55 | 0.03 | 33 | 1011.2 |
| 20260504182910 | 80 | 329 | 1.0 | 2.0 | 0.00 | 0.55 | 0.03 | 33 | 1011.2 |
| 20260504182529 | 80 | 158 | 0.0 | 3.0 | 0.00 | 0.55 | 0.03 | 33 | 1011.4 |
| 20260504182516 | 79 | 329 | 1.0 | 1.0 | 0.00 | 0.55 | 0.03 | 34 | 1011.5 |
| 20260504182440 | 80 | 194 | 0.0 | 0.0 | 0.00 | 0.55 | 0.03 | 33 | 1011.3 |
| 20260504182407 | 80 | 194 | 0.0 | 0.0 | 0.00 | 0.55 | 0.03 | 33 | 1011.3 |
| 20260504181908 | 80 | 201 | 3.0 | 2.0 | 0.00 | 0.55 | 0.03 | 33 | 1011.3 |
| 20260504181455 | 80 | 271 | 1.0 | 3.0 | 0.00 | 0.55 | 0.03 | 33 | 1011.3 |
| 20260504181408 | 80 | 271 | 1.0 | 3.0 | 0.00 | 0.55 | 0.03 | 33 | 1011.3 |
| 20260504180904 | 80 | 204 | 3.0 | 3.0 | 0.00 | 0.55 | 0.03 | 32 | 1011.4 |
| 20260504180446 | 80 | 158 | 0.0 | 3.0 | 0.00 | 0.55 | 0.03 | 33 | 1011.4 |
| 20260504180405 | 80 | 158 | 0.0 | 3.0 | 0.00 | 0.55 | 0.03 | 33 | 1011.4 |
| 20260504175402 | 79 | 329 | 1.0 | 1.0 | 0.00 | 0.55 | 0.03 | 34 | 1011.5 |
| 20260504175326 | 79 | 277 | 0.0 | 0.0 | 0.01 | 0.55 | 0.03 | 34 | 1011.8 |
| 20260504174902 | 79 | 359 | 1.0 | 0.0 | 0.01 | 0.55 | 0.03 | 34 | 1011.7 |
| 20260504174510 | 79 | 287 | 1.0 | 1.0 | 0.01 | 0.55 | 0.03 | 34 | 1011.7 |
| 20260504174403 | 79 | 287 | 1.0 | 1.0 | 0.01 | 0.55 | 0.03 | 34 | 1011.7 |
| 20260504173436 | 79 | 235 | 3.0 | 3.0 | 0.01 | 0.55 | 0.03 | 34 | 1011.9 |
| 20260504173400 | 79 | 235 | 3.0 | 3.0 | 0.01 | 0.55 | 0.03 | 34 | 1011.9 |
| 20260504172900 | 79 | 277 | 0.0 | 0.0 | 0.01 | 0.55 | 0.03 | 34 | 1011.8 |
| 20260504172357 | 79 | 302 | 0.0 | 3.0 | 0.01 | 0.55 | 0.03 | 35 | 1011.9 |
| 20260504172126 | 77 | 190 | 1.0 | 2.0 | 0.01 | 0.55 | 0.03 | 36 | 1012.2 |
| 20260504172118 | 77 | 215 | 0.0 | 5.0 | 0.01 | 0.55 | 0.03 | 37 | 1012.2 |
| 20260504171858 | 79 | 218 | 0.0 | 2.0 | 0.01 | 0.55 | 0.03 | 35 | 1012.0 |
| 20260504171359 | 78 | 203 | 0.0 | 0.0 | 0.01 | 0.55 | 0.03 | 36 | 1012.1 |
| 20260504170855 | 78 | 297 | 0.0 | 0.0 | 0.01 | 0.55 | 0.03 | 36 | 1012.1 |
| 20260504170441 | 78 | 203 | 1.0 | 0.0 | 0.01 | 0.55 | 0.03 | 36 | 1012.2 |
| 20260504170356 | 78 | 203 | 1.0 | 0.0 | 0.01 | 0.55 | 0.03 | 36 | 1012.2 |
| 20260504160349 | 74 | 162 | 0.0 | 0.0 | 0.00 | 0.55 | 0.02 | 41 | 1012.8 |
| 20260504150915 | 68 | 225 | 1.0 | 1.0 | 0.00 | 0.55 | 0.02 | 48 | 1013.2 |
| 20260504150913 | 68 | 212 | 3.0 | 2.0 | 0.00 | 0.55 | 0.02 | 49 | 1013.3 |
| 20260504150842 | 68 | 225 | 1.0 | 1.0 | 0.00 | 0.55 | 0.02 | 48 | 1013.2 |
| 20260504150735 | 68 | 212 | 3.0 | 2.0 | 0.00 | 0.55 | 0.02 | 49 | 1013.3 |
| 20260504150343 | 68 | 212 | 3.0 | 2.0 | 0.00 | 0.55 | 0.02 | 49 | 1013.3 |
| 20260504140939 | 66 | 336 | 2.0 | 0.0 | 0.01 | 0.55 | 0.02 | 49 | 1013.6 |
| 20260504140913 | 63 | 233 | 4.0 | 2.0 | 0.00 | 0.55 | 0.02 | 54 | 1013.9 |
| 20260504140837 | 66 | 336 | 2.0 | 0.0 | 0.01 | 0.55 | 0.02 | 49 | 1013.6 |
| 20260504140338 | 65 | 204 | 2.0 | 0.0 | 0.01 | 0.55 | 0.02 | 50 | 1013.6 |
| 20260504130525 | 60 | 83 | 2.0 | 0.0 | 0.00 | 0.55 | 0.01 | 61 | 1014.3 |
| 20260504130518 | 60 | 231 | 1.0 | 3.0 | 0.00 | 0.55 | 0.01 | 62 | 1014.4 |
| 20260504130508 | 60 | 277 | 1.0 | 0.0 | 0.00 | 0.55 | 0.01 | 63 | 1014.4 |
| 20260504130334 | 61 | 201 | 2.0 | 3.0 | 0.00 | 0.55 | 0.01 | 59 | 1014.1 |
| 20260504120308 | 60 | 287 | 3.0 | 2.0 | 0.00 | 0.55 | 0.01 | 65 | 1014.6 |
| 20260504120123 | 61 | 284 | 3.0 | 7.0 | 0.00 | 0.55 | 0.01 | 64 | 1014.8 |
| 20260504120119 | 61 | 188 | 1.0 | 1.0 | 0.00 | 0.55 | 0.01 | 65 | 1014.8 |
| 20260504120114 | 61 | 294 | 2.0 | 3.0 | 0.00 | 0.55 | 0.01 | 64 | 1014.8 |
| 20260504110349 | 55 | 243 | 2.0 | 2.0 | 0.00 | 0.55 | 0.01 | 73 | 1015.1 |
| 20260504110303 | 55 | 243 | 2.0 | 2.0 | 0.00 | 0.55 | 0.01 | 73 | 1015.1 |
| 20260504100300 | 48 | 217 | 1.0 | 1.0 | 0.00 | 0.55 | 0.01 | 77 | 1014.8 |
| 20260504081748 | 49 | 283 | 2.0 | 1.0 | 0.00 | 0.55 | 0.01 | 71 | 1014.8 |
| 20260504081711 | 49 | 311 | 0.0 | 1.0 | 0.00 | 0.55 | 0.01 | 71 | 1014.7 |
| 20260504081707 | 49 | 153 | 1.0 | 1.0 | 0.00 | 0.55 | 0.01 | 70 | 1014.6 |
| 20260504081250 | 49 | 311 | 0.0 | 1.0 | 0.00 | 0.55 | 0.01 | 71 | 1014.7 |
| 20260504080746 | 49 | 153 | 1.0 | 1.0 | 0.00 | 0.55 | 0.01 | 70 | 1014.6 |
| 20260504080240 | 49 | 229 | 1.0 | 2.0 | 0.00 | 0.55 | 0.01 | 70 | 1014.5 |
| 20260504080236 | 49 | 219 | 1.0 | 0.0 | 0.00 | 0.55 | 0.01 | 69 | 1014.5 |
| 20260504070333 | 49 | 197 | 0.0 | 0.0 | 0.01 | 0.55 | 0.01 | 67 | 1014.1 |
| 20260504070230 | 49 | 197 | 0.0 | 0.0 | 0.01 | 0.55 | 0.01 | 67 | 1014.1 |
| 20260504060226 | 50 | 264 | 0.0 | 0.0 | 0.00 | 0.55 | 0.01 | 63 | 1014.1 |
| 20260504050510 | 51 | 262 | 0.0 | 0.0 | 0.15 | 0.04 | 0.55 | 59 | 1013.8 |
| 20260504050501 | 51 | 260 | 0.0 | 0.0 | 0.15 | 0.04 | 0.55 | 59 | 1013.7 |
| 20260504050222 | 51 | 180 | 1.0 | 0.0 | 0.00 | 0.55 | 0.00 | 60 | 1014.0 |
| 20260504045723 | 51 | 183 | 0.0 | 0.0 | 0.00 | 0.55 | 0.00 | 60 | 1014.0 |
| 20260504045555 | 51 | 183 | 0.0 | 0.0 | 0.00 | 0.55 | 0.00 | 60 | 1013.9 |
| 20260504045220 | 51 | 183 | 0.0 | 0.0 | 0.00 | 0.55 | 0.00 | 60 | 1013.9 |
| 20260504044756 | 51 | 262 | 0.0 | 0.0 | 0.15 | 0.04 | 0.55 | 59 | 1013.9 |
| 20260504044721 | 51 | 262 | 0.0 | 0.0 | 0.15 | 0.04 | 0.55 | 59 | 1013.9 |
| 20260504044321 | 51 | 262 | 0.0 | 0.0 | 0.15 | 0.04 | 0.55 | 59 | 1013.8 |
| 20260504044222 | 51 | 262 | 0.0 | 0.0 | 0.15 | 0.04 | 0.55 | 59 | 1013.8 |
| 20260504043719 | 51 | 260 | 0.0 | 0.0 | 0.15 | 0.04 | 0.55 | 59 | 1013.7 |
| 20260504043619 | 51 | 280 | 0.0 | 0.0 | 0.15 | 0.04 | 0.55 | 58 | 1013.7 |
| 20260504043220 | 51 | 280 | 0.0 | 0.0 | 0.15 | 0.04 | 0.55 | 58 | 1013.7 |
| 20260504042722 | 51 | 280 | 0.0 | 0.0 | 0.15 | 0.04 | 0.55 | 58 | 1013.7 |
| 20260504042219 | 51 | 238 | 0.0 | 0.0 | 0.15 | 0.04 | 0.55 | 58 | 1013.8 |
| 20260504041720 | 52 | 238 | 0.0 | 1.0 | 0.15 | 0.04 | 0.55 | 58 | 1013.7 |
| 20260504041221 | 52 | 198 | 0.0 | 0.0 | 0.15 | 0.04 | 0.55 | 58 | 1013.7 |
| 20260504040718 | 52 | 195 | 0.0 | 0.0 | 0.15 | 0.04 | 0.55 | 57 | 1013.6 |
| 20260504040219 | 52 | 195 | 0.0 | 0.0 | 0.15 | 0.04 | 0.55 | 57 | 1013.5 |
| 20260504040109 | 52 | 270 | 0.0 | 0.0 | 0.07 | 0.04 | 0.50 | 56 | 1013.4 |
| 20260504035719 | 52 | 195 | 0.0 | 0.0 | 0.15 | 0.04 | 0.55 | 57 | 1013.5 |
| 20260504035216 | 52 | 195 | 0.0 | 0.0 | 0.15 | 0.04 | 0.55 | 57 | 1013.5 |
| 20260504034717 | 52 | 195 | 0.0 | 0.0 | 0.07 | 0.04 | 0.54 | 57 | 1013.5 |
| 20260504034218 | 52 | 229 | 0.0 | 0.0 | 0.07 | 0.04 | 0.53 | 57 | 1013.4 |
| 20260504033715 | 52 | 270 | 0.0 | 0.0 | 0.07 | 0.04 | 0.50 | 56 | 1013.4 |
| 20260504033216 | 52 | 252 | 0.0 | 0.0 | 0.07 | 0.04 | 0.49 | 57 | 1013.4 |
| 20260504032717 | 53 | 252 | 0.0 | 0.0 | 0.07 | 0.04 | 0.48 | 56 | 1013.4 |
| 20260504032214 | 53 | 252 | 0.0 | 0.0 | 0.07 | 0.04 | 0.46 | 56 | 1013.4 |
| 20260504031715 | 53 | 252 | 0.0 | 0.0 | 0.07 | 0.04 | 0.45 | 56 | 1013.4 |
| 20260504031216 | 53 | 252 | 0.0 | 0.0 | 0.07 | 0.04 | 0.45 | 56 | 1013.4 |
| 20260504030713 | 53 | 267 | 0.0 | 0.0 | 0.07 | 0.04 | 0.43 | 56 | 1013.4 |
| 20260504030214 | 53 | 248 | 0.0 | 0.0 | 0.07 | 0.04 | 0.42 | 56 | 1013.3 |
| 20260504025712 | 54 | 240 | 0.0 | 0.0 | 0.02 | 0.04 | 0.40 | 55 | 1013.3 |
| 20260504025702 | 54 | 214 | 1.0 | 0.0 | 0.02 | 0.04 | 0.40 | 55 | 1013.3 |
| 20260504025212 | 53 | 288 | 0.0 | 0.0 | 0.07 | 0.04 | 0.40 | 55 | 1013.4 |
| 20260504024714 | 53 | 329 | 1.0 | 0.0 | 0.02 | 0.04 | 0.40 | 55 | 1013.4 |
| 20260504024215 | 54 | 278 | 0.0 | 0.0 | 0.02 | 0.04 | 0.40 | 55 | 1013.3 |
| 20260504023713 | 54 | 240 | 0.0 | 0.0 | 0.02 | 0.04 | 0.40 | 55 | 1013.3 |
| 20260504023213 | 54 | 214 | 1.0 | 0.0 | 0.02 | 0.04 | 0.40 | 55 | 1013.3 |
| 20260504022714 | 54 | 248 | 0.0 | 0.0 | 0.02 | 0.04 | 0.39 | 55 | 1013.4 |
| 20260504022512 | 54 | 267 | 0.0 | 0.0 | 0.02 | 0.04 | 0.36 | 54 | 1013.4 |
| 20260504022503 | 55 | 267 | 0.0 | 0.0 | 0.02 | 0.04 | 0.35 | 54 | 1013.4 |
| 20260504022457 | 55 | 267 | 0.0 | 0.0 | 0.02 | 0.04 | 0.34 | 54 | 1013.3 |
| 20260504022211 | 54 | 195 | 0.0 | 0.0 | 0.02 | 0.04 | 0.39 | 55 | 1013.4 |
| 20260504021712 | 54 | 243 | 0.0 | 0.0 | 0.02 | 0.04 | 0.38 | 54 | 1013.4 |
| 20260504021213 | 54 | 243 | 1.0 | 0.0 | 0.02 | 0.04 | 0.37 | 54 | 1013.4 |
| 20260504020710 | 54 | 267 | 0.0 | 0.0 | 0.02 | 0.04 | 0.36 | 54 | 1013.4 |
| 20260504020211 | 55 | 267 | 0.0 | 0.0 | 0.02 | 0.04 | 0.35 | 54 | 1013.4 |
| 20260504015712 | 55 | 267 | 0.0 | 0.0 | 0.02 | 0.04 | 0.34 | 54 | 1013.3 |
| 20260504015310 | 56 | 212 | 0.0 | 0.0 | 0.01 | 0.04 | 0.31 | 52 | 1013.2 |
| 20260504015302 | 56 | 212 | 0.0 | 0.0 | 0.01 | 0.04 | 0.31 | 52 | 1013.1 |
| 20260504015254 | 56 | 276 | 0.0 | 0.0 | 0.01 | 0.04 | 0.31 | 52 | 1013.1 |
| 20260504015210 | 55 | 246 | 0.0 | 0.0 | 0.02 | 0.04 | 0.33 | 53 | 1013.4 |
| 20260504014711 | 55 | 229 | 0.0 | 0.0 | 0.01 | 0.04 | 0.33 | 53 | 1013.4 |
| 20260504014212 | 55 | 184 | 0.0 | 0.0 | 0.01 | 0.04 | 0.32 | 52 | 1013.4 |
| 20260504013811 | 55 | 322 | 0.0 | 0.0 | 0.01 | 0.04 | 0.31 | 52 | 1013.3 |
| 20260504013708 | 55 | 322 | 0.0 | 0.0 | 0.01 | 0.04 | 0.31 | 52 | 1013.3 |
| 20260504013209 | 56 | 212 | 0.0 | 0.0 | 0.01 | 0.04 | 0.31 | 52 | 1013.2 |
| 20260504012710 | 56 | 212 | 0.0 | 0.0 | 0.01 | 0.04 | 0.31 | 52 | 1013.1 |
| 20260504012207 | 56 | 276 | 0.0 | 0.0 | 0.01 | 0.04 | 0.31 | 52 | 1013.1 |
| 20260504012058 | 57 | 232 | 0.0 | 1.0 | 0.01 | 0.04 | 0.31 | 50 | 1012.7 |
| 20260504011708 | 56 | 276 | 0.0 | 0.0 | 0.01 | 0.04 | 0.31 | 52 | 1013.0 |
| 20260504011209 | 56 | 276 | 0.0 | 0.0 | 0.01 | 0.04 | 0.31 | 51 | 1012.9 |
| 20260504010706 | 56 | 269 | 0.0 | 0.0 | 0.01 | 0.04 | 0.31 | 51 | 1012.8 |
| 20260504010206 | 57 | 200 | 0.0 | 0.0 | 0.01 | 0.04 | 0.31 | 51 | 1012.8 |
| 20260504005706 | 57 | 200 | 0.0 | 0.0 | 0.01 | 0.04 | 0.31 | 50 | 1012.7 |
| 20260504005202 | 57 | 232 | 0.0 | 1.0 | 0.01 | 0.04 | 0.31 | 50 | 1012.7 |
| 20260504004905 | 57 | 210 | 0.0 | 0.0 | 0.07 | 0.04 | 0.31 | 49 | 1012.6 |
| 20260504004857 | 58 | 210 | 0.0 | 0.0 | 0.07 | 0.04 | 0.31 | 49 | 1012.5 |
| 20260504004703 | 57 | 210 | 0.0 | 0.0 | 0.07 | 0.04 | 0.31 | 49 | 1012.6 |
| 20260504004204 | 57 | 210 | 0.0 | 0.0 | 0.07 | 0.04 | 0.31 | 49 | 1012.6 |
| 20260504003701 | 58 | 210 | 0.0 | 0.0 | 0.07 | 0.04 | 0.31 | 49 | 1012.5 |
| 20260504003154 | 58 | 210 | 0.0 | 0.0 | 0.07 | 0.04 | 0.31 | 48 | 1012.4 |
| 20260504003146 | 58 | 271 | 0.0 | 0.0 | 0.07 | 0.04 | 0.31 | 47 | 1012.4 |
| 20260504002659 | 58 | 210 | 0.0 | 0.0 | 0.07 | 0.04 | 0.31 | 48 | 1012.4 |
| 20260504002155 | 58 | 271 | 0.0 | 0.0 | 0.07 | 0.04 | 0.31 | 47 | 1012.4 |
| 20260504001656 | 58 | 271 | 0.0 | 0.0 | 0.07 | 0.04 | 0.31 | 47 | 1012.3 |
| 20260504001156 | 58 | 271 | 0.0 | 0.0 | 0.07 | 0.04 | 0.31 | 46 | 1012.2 |
| 20260504000652 | 59 | 271 | 0.0 | 0.0 | 0.07 | 0.04 | 0.31 | 46 | 1012.2 |
| 20260504000153 | 59 | 242 | 0.0 | 0.0 | 0.07 | 0.04 | 0.31 | 45 | 1012.1 |
| 20260503235821 | 59 | 228 | 0.0 | 0.0 | 0.07 | 0.04 | 0.30 | 44 | 1012.1 |
| 20260503235818 | 59 | 228 | 0.0 | 0.0 | 0.07 | 0.04 | 0.30 | 44 | 1011.9 |
| 20260503235654 | 59 | 228 | 0.0 | 0.0 | 0.07 | 0.04 | 0.30 | 44 | 1012.1 |
| 20260503235228 | 59 | 228 | 0.0 | 0.0 | 0.07 | 0.04 | 0.30 | 44 | 1011.9 |
| 20260503235151 | 59 | 228 | 0.0 | 0.0 | 0.07 | 0.04 | 0.30 | 44 | 1011.9 |
| 20260503234652 | 59 | 228 | 0.0 | 0.0 | 0.03 | 0.04 | 0.30 | 43 | 1012.0 |
| 20260503234453 | 60 | 228 | 0.0 | 0.0 | 0.03 | 0.04 | 0.27 | 41 | 1011.9 |
| 20260503234153 | 59 | 228 | 0.0 | 0.0 | 0.03 | 0.04 | 0.30 | 43 | 1011.9 |
| 20260503233650 | 60 | 228 | 0.0 | 0.0 | 0.03 | 0.04 | 0.30 | 42 | 1011.9 |
| 20260503233151 | 60 | 228 | 0.0 | 0.0 | 0.03 | 0.04 | 0.30 | 42 | 1011.8 |
| 20260503232652 | 60 | 228 | 0.0 | 0.0 | 0.03 | 0.04 | 0.30 | 41 | 1011.8 |
| 20260503232148 | 60 | 228 | 0.0 | 0.0 | 0.03 | 0.04 | 0.29 | 41 | 1011.8 |
| 20260503231649 | 60 | 228 | 0.0 | 0.0 | 0.03 | 0.04 | 0.27 | 41 | 1011.9 |
| 20260503231150 | 60 | 228 | 0.0 | 0.0 | 0.03 | 0.04 | 0.27 | 41 | 1011.8 |
| 20260503230647 | 61 | 194 | 0.0 | 0.0 | 0.03 | 0.04 | 0.25 | 41 | 1011.7 |
| 20260503230148 | 61 | 309 | 0.0 | 0.0 | 0.03 | 0.04 | 0.24 | 40 | 1011.7 |
| 20260503225930 | 61 | 309 | 0.0 | 0.0 | 0.03 | 0.04 | 0.24 | 40 | 1011.7 |
| 20260503225649 | 61 | 309 | 0.0 | 0.0 | 0.03 | 0.04 | 0.24 | 40 | 1011.7 |
| 20260503225145 | 61 | 298 | 0.0 | 0.0 | 0.03 | 0.04 | 0.23 | 39 | 1011.6 |
| 20260503224646 | 61 | 291 | 1.0 | 4.0 | 0.07 | 0.04 | 0.22 | 39 | 1011.7 |
| 20260503224347 | 61 | 301 | 0.0 | 0.0 | 0.07 | 0.04 | 0.22 | 39 | 1011.7 |
| 20260503224147 | 61 | 301 | 0.0 | 0.0 | 0.07 | 0.04 | 0.22 | 39 | 1011.7 |
| 20260503224057 | 62 | 342 | 0.0 | 1.0 | 0.07 | 0.04 | 0.21 | 38 | 1011.5 |
| 20260503223644 | 61 | 278 | 0.0 | 1.0 | 0.07 | 0.04 | 0.22 | 38 | 1011.6 |
| 20260503223145 | 62 | 295 | 0.0 | 0.0 | 0.07 | 0.04 | 0.22 | 39 | 1011.6 |
| 20260503222646 | 62 | 295 | 1.0 | 0.0 | 0.07 | 0.04 | 0.22 | 39 | 1011.6 |
| 20260503222347 | 62 | 7 | 0.0 | 0.0 | 0.07 | 0.04 | 0.21 | 39 | 1011.5 |
| 20260503222142 | 62 | 7 | 0.0 | 0.0 | 0.07 | 0.04 | 0.21 | 39 | 1011.5 |
| 20260503221643 | 62 | 342 | 0.0 | 0.0 | 0.07 | 0.04 | 0.21 | 39 | 1011.6 |
| 20260503221607 | 62 | 342 | 0.0 | 1.0 | 0.07 | 0.04 | 0.21 | 38 | 1011.5 |
| 20260503221144 | 62 | 342 | 0.0 | 1.0 | 0.07 | 0.04 | 0.21 | 38 | 1011.5 |
| 20260503220932 | 62 | 293 | 0.0 | 0.0 | 0.07 | 0.04 | 0.21 | 38 | 1011.5 |
| 20260503220903 | 63 | 309 | 1.0 | 3.0 | 0.00 | 0.04 | 0.20 | 37 | 1011.4 |
| 20260503220854 | 63 | 343 | 1.0 | 1.0 | 0.00 | 0.04 | 0.19 | 37 | 1011.4 |
| 20260503220641 | 62 | 293 | 0.0 | 0.0 | 0.07 | 0.04 | 0.21 | 38 | 1011.5 |
| 20260503220408 | 62 | 264 | 0.0 | 0.0 | 0.07 | 0.04 | 0.21 | 37 | 1011.5 |
| 20260503220142 | 62 | 264 | 0.0 | 0.0 | 0.07 | 0.04 | 0.21 | 37 | 1011.5 |
| 20260503220106 | 62 | 288 | 0.0 | 0.0 | 0.07 | 0.04 | 0.20 | 37 | 1011.6 |
| 20260503215643 | 62 | 288 | 0.0 | 0.0 | 0.07 | 0.04 | 0.20 | 37 | 1011.6 |
| 20260503215542 | 62 | 10 | 1.0 | 1.0 | 0.07 | 0.04 | 0.20 | 37 | 1011.5 |
| 20260503215139 | 62 | 10 | 1.0 | 1.0 | 0.07 | 0.04 | 0.20 | 37 | 1011.5 |
| 20260503214640 | 63 | 309 | 1.0 | 3.0 | 0.00 | 0.04 | 0.20 | 37 | 1011.4 |
| 20260503214539 | 63 | 343 | 1.0 | 1.0 | 0.00 | 0.04 | 0.19 | 37 | 1011.4 |
| 20260503214141 | 63 | 343 | 1.0 | 1.0 | 0.00 | 0.04 | 0.19 | 37 | 1011.4 |
| 20260503213654 | 64 | 323 | 1.0 | 0.0 | 0.00 | 0.04 | 0.13 | 37 | 1011.4 |
| 20260503213638 | 63 | 37 | 2.0 | 0.0 | 0.00 | 0.04 | 0.18 | 38 | 1011.4 |
| 20260503213601 | 63 | 191 | 2.0 | 2.0 | 0.00 | 0.04 | 0.18 | 37 | 1011.3 |
| 20260503213138 | 63 | 191 | 2.0 | 2.0 | 0.00 | 0.04 | 0.18 | 37 | 1011.3 |
| 20260503212639 | 63 | 312 | 0.0 | 3.0 | 0.00 | 0.04 | 0.16 | 37 | 1011.4 |
| 20260503212136 | 64 | 314 | 1.0 | 1.0 | 0.00 | 0.04 | 0.14 | 37 | 1011.4 |
| 20260503211637 | 64 | 359 | 1.0 | 2.0 | 0.00 | 0.04 | 0.13 | 36 | 1011.3 |
| 20260503211138 | 64 | 323 | 1.0 | 0.0 | 0.00 | 0.04 | 0.13 | 37 | 1011.4 |
| 20260503210717 | 64 | 359 | 1.0 | 3.0 | 0.00 | 0.04 | 0.13 | 37 | 1011.3 |
| 20260503210634 | 64 | 359 | 1.0 | 3.0 | 0.00 | 0.04 | 0.13 | 37 | 1011.3 |
| 20260503210458 | 64 | 229 | 3.0 | 2.0 | 0.00 | 0.04 | 0.13 | 37 | 1011.3 |
| 20260503210135 | 64 | 319 | 0.0 | 0.0 | 0.00 | 0.04 | 0.13 | 37 | 1011.3 |
| 20260503205636 | 64 | 316 | 1.0 | 0.0 | 0.00 | 0.04 | 0.13 | 37 | 1011.4 |
| 20260503205133 | 64 | 308 | 0.0 | 0.0 | 0.00 | 0.04 | 0.13 | 37 | 1011.2 |
| 20260503204634 | 64 | 353 | 1.0 | 2.0 | 0.00 | 0.04 | 0.13 | 37 | 1011.3 |
| 20260503204133 | 64 | 229 | 3.0 | 2.0 | 0.00 | 0.04 | 0.13 | 37 | 1011.3 |
| 20260503203631 | 64 | 262 | 1.0 | 0.0 | 0.00 | 0.04 | 0.13 | 38 | 1011.2 |
| 20260503203149 | 65 | 298 | 3.0 | 0.0 | 0.00 | 0.04 | 0.13 | 38 | 1011.2 |
| 20260503203131 | 64 | 349 | 3.0 | 0.0 | 0.00 | 0.04 | 0.13 | 37 | 1011.2 |
| 20260503202632 | 64 | 263 | 1.0 | 0.0 | 0.00 | 0.04 | 0.13 | 37 | 1011.2 |
| 20260503202442 | 65 | 328 | 1.0 | 1.0 | 0.00 | 0.04 | 0.13 | 38 | 1011.2 |
| 20260503202128 | 65 | 328 | 1.0 | 1.0 | 0.00 | 0.04 | 0.13 | 38 | 1011.2 |
| 20260503201629 | 65 | 263 | 1.0 | 2.0 | 0.00 | 0.04 | 0.13 | 38 | 1011.2 |
| 20260503201130 | 65 | 298 | 3.0 | 0.0 | 0.00 | 0.04 | 0.13 | 38 | 1011.2 |
| 20260503200917 | 65 | 318 | 1.0 | 2.0 | 0.00 | 0.04 | 0.13 | 38 | 1011.2 |
| 20260503200627 | 65 | 318 | 1.0 | 2.0 | 0.00 | 0.04 | 0.13 | 38 | 1011.2 |
| 20260503200206 | 65 | 316 | 2.0 | 0.0 | 0.00 | 0.04 | 0.13 | 38 | 1011.3 |
| 20260503200128 | 65 | 316 | 2.0 | 0.0 | 0.00 | 0.04 | 0.13 | 38 | 1011.3 |
| 20260503200058 | 65 | 236 | 0.0 | 0.0 | 0.07 | 0.04 | 0.13 | 39 | 1011.4 |
| 20260503200053 | 65 | 343 | 2.0 | 0.0 | 0.07 | 0.04 | 0.13 | 39 | 1011.6 |
| 20260503195730 | 65 | 172 | 2.0 | 1.0 | 0.00 | 0.04 | 0.13 | 38 | 1011.4 |
| 20260503195628 | 65 | 311 | 0.0 | 3.0 | 0.00 | 0.04 | 0.13 | 39 | 1011.4 |
| 20260503195125 | 65 | 172 | 2.0 | 1.0 | 0.00 | 0.04 | 0.13 | 38 | 1011.4 |
| 20260503194626 | 65 | 4 | 1.0 | 0.0 | 0.07 | 0.04 | 0.13 | 39 | 1011.4 |
| 20260503194127 | 65 | 236 | 0.0 | 0.0 | 0.07 | 0.04 | 0.13 | 39 | 1011.4 |
| 20260503193623 | 65 | 343 | 2.0 | 0.0 | 0.07 | 0.04 | 0.13 | 39 | 1011.6 |
| 20260503193201 | 65 | 304 | 0.0 | 0.0 | 0.07 | 0.04 | 0.13 | 39 | 1011.5 |
| 20260503193124 | 65 | 304 | 0.0 | 0.0 | 0.07 | 0.04 | 0.13 | 39 | 1011.5 |
| 20260503192858 | 65 | 342 | 2.0 | 0.0 | 0.07 | 0.04 | 0.13 | 40 | 1011.7 |
| 20260503192852 | 65 | 274 | 0.0 | 0.0 | 0.07 | 0.04 | 0.13 | 41 | 1011.7 |
| 20260503192847 | 64 | 333 | 1.0 | 0.0 | 0.07 | 0.04 | 0.13 | 40 | 1011.6 |
| 20260503192625 | 65 | 266 | 2.0 | 2.0 | 0.07 | 0.04 | 0.13 | 39 | 1011.7 |
| 20260503192122 | 65 | 322 | 0.0 | 0.0 | 0.07 | 0.04 | 0.13 | 40 | 1011.6 |
| 20260503191621 | 65 | 329 | 0.0 | 2.0 | 0.07 | 0.04 | 0.13 | 40 | 1011.7 |
| 20260503191122 | 65 | 342 | 2.0 | 0.0 | 0.07 | 0.04 | 0.13 | 40 | 1011.7 |
| 20260503190618 | 65 | 274 | 0.0 | 0.0 | 0.07 | 0.04 | 0.13 | 41 | 1011.7 |
| 20260503190119 | 64 | 333 | 1.0 | 0.0 | 0.07 | 0.04 | 0.13 | 40 | 1011.6 |